Regional Weather Roundup
Issued by NWS Mobile, AL

Home | Current Version | Previous Version | Text Only | Print | Product List | Glossary On
Versions: 1 2 3 4 5 6 7 8 9 10 11 12 13 14 15 16 17 18 19 20 21 22 23 24 25 26 27 28 29 30 31 32 33 34 35 36 37 38 39 40 41 42 43 44 45 46 47 48 49 50
000
ASUS44 KMOB 020110
RWRMOB
REGIONAL WEATHER ROUNDUP
NATIONAL WEATHER SERVICE MOBILE AL
700 PM CST SUN MAR 01 2015

NOTE: "FAIR" INDICATES FEW OR NO CLOUDS BELOW 12,000 FEET WITH NO
      SIGNIFICANT WEATHER AND/OR OBSTRUCTIONS TO VISIBILITY.

  * THESE STATIONS ARE PART OF THE UNIVERSITY OF SOUTH ALABAMA
    MESONET AND ARE NOT UNDER NWS OR FAA QUALITY CONTROL.

ALZ061>064-020200-
COASTAL ALABAMA

CITY           SKY/WX    TMP DP  RH WIND       PRES   REMARKS
MOBILE REG APT CLOUDY    58  56  93 E6        30.32R
BROOKLEY FIELD CLOUDY    58  56  93 NE7       30.33R
USA CAMPUS*      N/A     59  57  94 NE5       30.32R
DOG RIVER*     NOT AVBL


CITY           SKY/WX    TMP DP  RH WIND       PRES   REMARKS
MOUNT VERNON*    N/A     59  54  82 NE3       30.33S
SARALAND*      NOT AVBL
BAY MINETTE*   NOT AVBL
LOXLEY*          N/A     57  55  94 E5        30.32R
ROBERTSDALE*     N/A     57  57 100 CALM      30.31S
FAIRHOPE*        N/A     57  57 100 E7        30.31R
ELBERTA*         N/A     57  57 100 E2        30.31R
FOLEY*         NOT AVBL
GRAND BAY*       N/A     59  57  94 N3        30.29R
DAUPHIN ISLND* NOT AVBL
BON SCOUR NWR* NOT AVBL
GULF SHORES    FOG       57  57 100 E5        30.31S VSB 1/2

$$

ALZ051>060-020200-
INTERIOR SOUTHWEST AND SOUTH CENTRAL ALABAMA

CITY           SKY/WX    TMP DP  RH WIND       PRES   REMARKS
GREENVILLE     CLOUDY    53  50  89 SE5       30.36R
EVERGREEN      CLOUDY    55  54  96 E7        30.37R
CASTLEBERRY*   NOT AVBL
ATMORE*          N/A     55  55 100 NE5       30.35R
DIXIE*           N/A     54  54 100 N2        30.33S
ANDALUSIA/OPP  CLOUDY    56  51  84 E6        30.36F HAZE
ANDALUSIA*       N/A     52  52 100 NE8       30.35S
FLORALA APT    FOG       53  52  96 NE6       30.37S VSB 1/2
FLORALA*         N/A     52  52 100 CALM      30.33R

$$

FLZ001>006-020200-
WESTERN FLORIDA PANHANDLE

CITY           SKY/WX    TMP DP  RH WIND       PRES   REMARKS
PENSACOLA      CLOUDY    58  54  86 VRB6      30.32R
NAS PENSACOLA  CLOUDY    59  56  89 NE6       30.31S
MILTON         CLOUDY    55  54  96 NE6       30.33S FOG
WHTNG S FIELD  FOG       57  54  89 NE10      30.34R VSB 1


CITY           SKY/WX    TMP DP  RH WIND       PRES   REMARKS
WALNUT HILL*   NOT AVBL
JAY*             N/A     55  54  94 NE3       30.34S
DUKE FIELD     CLOUDY    54  52  94 NE5       30.33R FOG
CRESTVIEW      FOG       53  53 100 NE7       30.36R VSB 3/4
VALPARAISO     CLOUDY    57  54  92 NE8       30.33R FOG
DESTIN         CLOUDY    58  55  90 NE6       30.34R

$$

MSZ076-079-020200-
INTERIOR SOUTHEAST MISSISSIPPI

CITY           SKY/WX    TMP DP  RH WIND       PRES   REMARKS
LEAKESVILLE*     N/A     59  55  88 E3        30.32R
AGRICOLA*      NOT AVBL

$$

MARINE OBSERVATIONS

STATION/POSITION TIME  TEMP    WIND        PRES    WAVE
                       AIR SEA DIR/SP/G            HT/PER
                 (UTC) (F)     (DEG/KT/KT) (MB)    (FT/S)
PASCAGOULA       0100   59      50/  5/  7 1025.7R
PETIT BOIS ISLND 0100   57      80/ 10/ 11 1026.1R
GRAND BAY        2300   57      70/  5     1026.0S
KATRINA CUT      0000   54      80/ 10     1026.8R
CEDAR POINT      0000   54      70/  6     1026.4S
E DAUPHIN ISLAND 2258   56      80/  9/  9 1025.2F
MIDDLE BAY LIGHT 0000   50      60/  8     1025.7R
USCG MOBILE BAY  0100   58 52   50/  4/  4 1025.5S
STATE DOCKS      0100   59 48              1026.3R
MEAHER PARK      0000   58      20/  2     1026.8R
WEEKS BAY        0000   59                   N/A
FORT MORGAN      0100   58      90/ 11/ 14 1025.4F
12 S ORANGE BCH  0100   60 62   70/ 14/ 17 1025.5R   3/ 6
PENSACOLA BAY    0100   62 54   40/  6/  8 1026.8S
64 S DAUPHIN ISL 0024   70 71  110/ 12/ 14 1025.3R   4/ 7

$$

SELECTED LOCATIONS ACROSS THE REGION

CITY           SKY/WX    TMP DP  RH WIND       PRES   REMARKS
NEW ORLEANS    CLOUDY    59  56  89 E12       30.25F FOG
GULFPORT       CLOUDY    61  59  93 E7        30.29R FOG
PASCAGOULA AP  CLOUDY    59  57  93 NE6       30.31R FOG
PASCAGOULA*    NOT AVBL
HATTIESBURG    RAIN      60  58  92 NE6       30.31R FOG
LAUREL         CLOUDY    57  54  88 NE7       30.33S
MERIDIAN       CLOUDY    55  54  96 S7        30.30S
JACKSON        CLOUDY    60  57  89 E7        30.28R
MONTGOMERY     CLOUDY    52  49  89 E7        30.38S FOG
TROY           CLOUDY    52  49  89 E5        30.38S
KINSTON*       NOT AVBL
GENEVA*          N/A     52  50  93 CALM      30.39R
ASHFORD*         N/A     52  52 100 NE8       30.35S
DOTHAN         CLOUDY    51  49  92 NE7       30.40R
PANAMA CITY    CLOUDY    58  53  84 N8        30.33R

$$



USA.gov is the U.S. government's official web portal to all federal, state and local government web resources and services.